Daytona Beach, FL

10:13 PM EST on December 04, 2016 (GMT -0500)
Daytona Beach International

Weather History for KDAB - March, 2013

Change the Weather History Date:

Wednesday, March 20, 2013

  Actual Average Record
Temperature  
Mean Temperature 64 °F 65 °F  
Max Temperature 73 °F 75 °F 90 °F (1977)
Min Temperature 54 °F 55 °F 40 °F (1956)
Degree Days  
Heating Degree Days 1 3  
Month to date heating degree days 155 73  
Since 1 July heating degree days 621 755  
Cooling Degree Days 0 3  
Month to date cooling degree days 14 45  
Year to date cooling degree days 147 110  
Growing Degree Days 14 (Base 50)    
Moisture  
Dew Point 58 °F    
Average Humidity 81    
Maximum Humidity 93    
Minimum Humidity 68    
Precipitation  
Precipitation 0.59 in 0.15 in 2.70 in (1943)
Month to date precipitation 0.64 2.73  
Year to date precipitation 2.52 8.25  
Sea Level Pressure  
Sea Level Pressure 29.92 in    
Wind  
Wind Speed 7 mph (North)    
Max Wind Speed 21 mph    
Max Gust Speed 25 mph    
Visibility 8 miles    
Events Fog , Rain , Thunderstorm    
T = Trace of Precipitation, MM = Missing Value Source: NWS Daily Summary

Daily Weather History Graph

Daily Weather History Graph

Search for Another Location

Airport or City:

Trip Planner

Search our weather history database for the weather conditions in past years. The results will help you decide how hot, cold, wet, or windy it might be!

Date:

Astronomy

Mar. 20, 2013 Rise Set
Actual Time 7:27 AM EDT 7:35 PM EDT
Civil Twilight 7:04 AM EDT 7:59 PM EDT
Nautical Twilight 6:36 AM EDT 8:27 PM EDT
Astronomical Twilight 6:08 AM EDT 8:54 PM EDT
Moon 1:33 PM EDT (3/20) 2:41 AM EDT (3/20)
Length of Visible Light 12h 55m
Length of Day
12h 07m
First Quarter, 59% of the Moon is Illuminated
Mar 20
First Quarter
Mar 27
Full
Apr 3
Last Quarter
Apr 10
New
Apr 18
First Quarter

Hourly Weather History & Observations

Time (EDT) Temp. Dew Point Humidity Pressure Visibility Wind Dir Wind Speed Gust Speed Precip Events Conditions
12:53 AM 64.0 °F 62.1 °F 93% 30.00 in 10.0 mi ENE 3.5 mph - N/A   Scattered Clouds
1:53 AM 66.0 °F 59.0 °F 78% 29.99 in 10.0 mi NNE 21.9 mph 25.3 mph 0.01 in Rain , Thunderstorm Light Thunderstorms and Rain
2:27 AM 62.6 °F 55.4 °F 77% 29.98 in 10.0 mi East 4.6 mph - 0.00 in   Mostly Cloudy
2:53 AM 63.0 °F 57.0 °F 81% 29.98 in 10.0 mi SE 3.5 mph - 0.00 in   Mostly Cloudy
3:53 AM 63.0 °F 55.9 °F 78% 29.96 in 10.0 mi Calm Calm - N/A   Scattered Clouds
4:53 AM 60.1 °F 57.0 °F 90% 29.95 in 10.0 mi Calm Calm - N/A   Scattered Clouds
5:53 AM 59.0 °F 57.0 °F 93% 29.95 in 10.0 mi Calm Calm - N/A   Scattered Clouds
6:53 AM 60.1 °F 57.9 °F 93% 29.96 in 10.0 mi Calm Calm - N/A   Mostly Cloudy
7:53 AM 62.1 °F 59.0 °F 90% 29.96 in 10.0 mi NNE 3.5 mph - N/A   Overcast
8:53 AM 64.0 °F 61.0 °F 90% 29.97 in 10.0 mi Calm Calm - N/A   Overcast
9:53 AM 66.9 °F 64.0 °F 90% 29.98 in 8.0 mi NE 4.6 mph - N/A   Overcast
10:53 AM 68.0 °F 64.0 °F 87% 29.99 in 10.0 mi North 5.8 mph - N/A   Overcast
11:53 AM 71.1 °F 61.0 °F 70% 29.98 in 10.0 mi East 5.8 mph - 0.00 in   Overcast
12:53 PM 72.0 °F 60.1 °F 66% 29.96 in 10.0 mi East 5.8 mph - N/A   Overcast
1:53 PM 66.9 °F 60.1 °F 79% 29.91 in 10.0 mi North 16.1 mph 20.7 mph 0.00 in Rain Light Rain
2:53 PM 68.0 °F 60.1 °F 76% 29.90 in 10.0 mi North 16.1 mph 20.7 mph 0.00 in   Overcast
3:53 PM 69.1 °F 60.1 °F 73% 29.85 in 10.0 mi North 10.4 mph - N/A   Mostly Cloudy
4:53 PM 69.1 °F 60.1 °F 73% 29.83 in 10.0 mi North 10.4 mph - N/A   Mostly Cloudy
5:53 PM 66.9 °F 60.1 °F 79% 29.83 in 10.0 mi North 11.5 mph - N/A   Overcast
6:12 PM 66.2 °F 60.8 °F 83% 29.83 in 9.0 mi North 9.2 mph 19.6 mph N/A   Overcast
6:53 PM 64.9 °F 59.0 °F 81% 29.83 in 9.0 mi North 11.5 mph - N/A   Overcast
7:25 PM 62.6 °F 57.2 °F 82% 29.86 in 8.0 mi North 15.0 mph 24.2 mph 0.00 in Rain , Thunderstorm Light Thunderstorms and Rain
7:45 PM 60.8 °F 55.4 °F 82% 29.90 in 2.5 mi NNW 12.7 mph 24.2 mph 0.02 in Rain , Thunderstorm Heavy Thunderstorms and Rain
7:53 PM 59.0 °F 55.9 °F 90% 29.91 in 1.0 mi North 11.5 mph 23.0 mph 0.20 in Rain , Thunderstorm Heavy Thunderstorms and Rain
7:56 PM 59.0 °F 55.4 °F 88% 29.89 in 0.5 mi North 12.7 mph 23.0 mph 0.05 in Fog , Rain , Thunderstorm Heavy Thunderstorms and Rain
8:07 PM 57.2 °F 55.4 °F 94% 29.90 in 2.0 mi NW 13.8 mph - 0.23 in Rain , Thunderstorm Thunderstorms and Rain
8:24 PM 57.2 °F 55.4 °F 94% 29.90 in 6.0 mi NNW 11.5 mph - 0.34 in Rain Light Rain
8:53 PM 57.9 °F 55.9 °F 93% 29.89 in 9.0 mi North 6.9 mph - 0.36 in Rain Light Rain
9:53 PM 57.9 °F 55.9 °F 93% 29.86 in 10.0 mi WNW 3.5 mph - 0.02 in Rain Light Rain
10:53 PM 57.0 °F 55.9 °F 96% 29.86 in 8.0 mi WNW 5.8 mph - 0.00 in   Overcast
11:53 PM 55.9 °F 54.0 °F 93% 29.88 in 10.0 mi WNW 8.1 mph - N/A   Partly Cloudy